Montgomery, NY

11:46 AM EDT on September 22, 2017 (GMT -0400)
Orange County

Weather History for KMGJ - November, 2012

Change the Weather History Date:

Tuesday, November 6, 2012

  Actual Average (KSWF) Record (KSWF)
Temperature  
Mean Temperature 30 °F -  
Max Temperature 42 °F 51 °F 75 °F (2015)
Min Temperature 19 °F 33 °F 17 °F (1991)
Degree Days  
Heating Degree Days 34    
Moisture  
Dew Point 20 °F    
Average Humidity 70    
Maximum Humidity 96    
Minimum Humidity 40    
Precipitation  
Precipitation 0.00 in - - ()
Sea Level Pressure  
Sea Level Pressure 30.18 in    
Wind  
Wind Speed 1 mph (NE)    
Max Wind Speed 8 mph    
Max Gust Speed -    
Visibility 10 miles    
Events      
Averages and records for this station are not official NWS values.
T = Trace of Precipitation, MM = Missing Value Source: NWS Daily Summary

Daily Weather History Graph

Daily Weather History Graph

Search for Another Location

Airport or City:

Trip Planner

Search our weather history database for the weather conditions in past years. The results will help you decide how hot, cold, wet, or windy it might be!

Date:

Astronomy

Nov. 06, 2012 Rise Set
Actual Time 6:35 AM EST 4:45 PM EST
Civil Twilight 6:06 AM EST 5:14 PM EST
Nautical Twilight 5:33 AM EST 5:47 PM EST
Astronomical Twilight 5:00 AM EST 6:20 PM EST
Moon 11:22 PM EST (11/6) 12:25 PM EST (11/6)
Length of Visible Light 11h 08m
Length of Day
10h 10m
Waning Gibbous, 53% of the Moon is Illuminated
Nov 6
Waning Gibbous
Nov 6
Last Quarter
Nov 13
New
Nov 20
First Quarter
Nov 28
Full

Hourly Weather History & Observations

Time (EST) Temp. Windchill Dew Point Humidity Pressure Visibility Wind Dir Wind Speed Gust Speed Precip Events Conditions
12:54 AM 23.0 °F - 21.0 °F 92% 30.19 in 10.0 mi Calm Calm - N/A   Clear
1:54 AM 23.0 °F - 21.0 °F 92% 30.20 in 10.0 mi Calm Calm - N/A   Clear
2:54 AM 21.9 °F - 19.0 °F 89% 30.19 in 10.0 mi Calm Calm - N/A   Clear
3:54 AM 21.0 °F - 19.9 °F 96% 30.18 in 10.0 mi Calm Calm - N/A   Clear
4:54 AM 21.0 °F - 19.0 °F 92% 30.19 in 10.0 mi Calm Calm - N/A   Clear
5:54 AM 19.0 °F 13.9 °F 16.0 °F 88% 30.21 in 10.0 mi SW 3.5 mph - N/A   Clear
6:54 AM 19.9 °F - 18.0 °F 92% 30.22 in 10.0 mi Calm Calm - N/A   Clear
7:54 AM 23.0 °F - 21.0 °F 92% 30.25 in 10.0 mi Calm Calm - N/A   Clear
8:54 AM 30.0 °F 26.5 °F 24.1 °F 79% 30.25 in 10.0 mi SSW 3.5 mph - N/A   Clear
9:54 AM 36.0 °F - 19.9 °F 52% 30.24 in 10.0 mi Calm Calm - N/A   Clear
10:54 AM 37.9 °F 33.5 °F 18.0 °F 45% 30.23 in 10.0 mi Variable 5.8 mph - N/A   Clear
11:54 AM 39.0 °F - 17.1 °F 41% 30.21 in 10.0 mi Calm Calm - N/A   Clear
12:54 PM 41.0 °F - 18.0 °F 40% 30.19 in 10.0 mi Calm Calm - N/A   Clear
1:54 PM 41.0 °F - 19.9 °F 43% 30.17 in 10.0 mi Calm Calm - N/A   Clear
2:54 PM 42.1 °F 40.2 °F 19.9 °F 41% 30.16 in 10.0 mi SE 3.5 mph - N/A   Clear
3:54 PM 41.0 °F - 18.0 °F 40% 30.15 in 10.0 mi Calm Calm - N/A   Clear
4:54 PM 37.9 °F - 18.0 °F 45% 30.14 in 10.0 mi Calm Calm - N/A   Clear
5:54 PM 30.0 °F 26.5 °F 24.1 °F 79% 30.14 in 10.0 mi North 3.5 mph - N/A   Clear
6:54 PM 30.0 °F - 24.1 °F 79% 30.15 in 10.0 mi Calm Calm - N/A   Clear
7:54 PM 27.0 °F - 21.9 °F 81% 30.14 in 10.0 mi Calm Calm - N/A   Clear
8:54 PM 27.0 °F - 21.9 °F 81% 30.15 in 10.0 mi Calm Calm - N/A   Clear
9:54 PM 26.1 °F 17.6 °F 18.0 °F 71% 30.12 in 10.0 mi NNE 8.1 mph - N/A   Clear
10:54 PM 28.9 °F 23.9 °F 19.0 °F 67% 30.14 in 10.0 mi NNE 4.6 mph - N/A   Clear
11:54 PM 28.0 °F 21.7 °F 19.9 °F 72% 30.13 in 10.0 mi NNE 5.8 mph - N/A   Clear